Home   Weather   Chattanooga   Past weeks

Flag for USA Past Weather in Chattanooga, Tennessee, USA — Yesterday and Last 2 Weeks

41 °F


Feels Like: 41 °F
Forecast: 39 / 74 °F
Wind: No wind

Location: Lovell Field

Current Time: Oct 23, 2016 at 5:53:17 AM

Latest Report: Oct 23, 2016 at 4:53 AM

Visibility: 10 mi

Pressure: 30.22 "Hg

Humidity: 82%

Dew Point: 36 °F

Location of ChattanoogaLocation

Past Weather in Chattanooga — Graph


Chattanooga Temperature Yesterday

Maximum temperature yesterday: 67 °F (at 3:53 PM)
Minimum temperature yesterday: 46 °F (at 7:53 AM)
Average temperature yesterday: 55 °F

High & Low Weather Summary for the Past Weeks

High88 °F (Oct 19, 2:53 PM)90% (Oct 17, 5:53 AM)30.39 "Hg (Oct 17, 5:53 AM)
Low43 °F (Oct 23, 3:53 AM)21% (Oct 12, 5:53 PM)29.86 "Hg (Oct 21, 12:53 AM)
Average67 °F56%30.13 "Hg
* Reported Oct 8 3:53 AM — Oct 23 3:53 AM, Chattanooga, Weather by CustomWeather, © 2016

Note: Actual official high and low records may vary slightly from our data, if they occured in-between our weather recording intervals... More about our weather records


Chattanooga Weather History for the Previous 24 Hours

Scroll right to see more
Time TempWeatherWind HumidityBarometerVisibility
3:53 AM
Sun, Oct 23
43 °FClear.No wind76%30.20 "Hg10 mi
2:53 AM44 °FClear.No wind73%30.19 "Hg10 mi
1:53 AM46 °FClear.No wind71%30.17 "Hg10 mi
12:53 AM47 °FClear.No wind69%30.17 "Hg10 mi
11:53 PM
Sat, Oct 22
48 °FClear.No wind63%30.16 "Hg10 mi
10:53 PM49 °FClear.No wind61%30.15 "Hg10 mi
9:53 PM52 °FClear.No wind53%30.14 "Hg10 mi
8:53 PM55 °FClear.3 mph42%30.13 "Hg10 mi
7:53 PM57 °FClear.3 mph37%30.12 "Hg10 mi
6:53 PM60 °FSunny.7 mph30%30.11 "Hg10 mi
5:53 PM66 °FPassing clouds.12 mph22%30.09 "Hg10 mi
4:53 PM67 °FPassing clouds.12 mph22%30.09 "Hg10 mi
3:53 PM67 °FPassing clouds.10 mph24%30.09 "Hg10 mi
2:53 PM66 °FPassing clouds.16 mph24%30.10 "Hg10 mi
1:53 PM65 °FPassing clouds.16 mph27%30.11 "Hg10 mi
12:53 PM63 °FPassing clouds.15 mph30%30.13 "Hg10 mi
11:53 AM59 °FScattered clouds.15 mph39%30.14 "Hg10 mi
10:53 AM56 °FScattered clouds.15 mph49%30.14 "Hg10 mi
9:53 AM53 °FPassing clouds.8 mph59%30.14 "Hg10 mi
8:53 AM49 °FScattered clouds.7 mph66%30.14 "Hg10 mi
7:53 AM46 °FScattered clouds.8 mph71%30.12 "Hg10 mi
6:53 AM48 °FPassing clouds.13 mph63%30.11 "Hg10 mi
5:53 AM47 °FPassing clouds.9 mph69%30.08 "Hg10 mi
Weather by CustomWeather, © 2016

See weather overviewHow to use our weather pages